Weather History for Riga, Latvia

Change the Weather History Date:

Thursday, January 17, 2013

  Actual Average Record
Temperature  
Mean Temperature 14 °F -  
Max Temperature 19 °F 31 °F 44 °F (2007)
Min Temperature 8 °F 21 °F 5 °F (2014)
Degree Days  
Heating Degree Days 52    
Moisture  
Dew Point 15 °F    
Average Humidity 90    
Maximum Humidity 100    
Minimum Humidity 81    
Precipitation  
Precipitation 0.00 in 0.04 in - ()
Sea Level Pressure  
Sea Level Pressure 30.04 in    
Wind  
Wind Speed 9 mph ()    
Max Wind Speed 16 mph    
Max Gust Speed -    
Visibility 6.1 miles    
Events Snow    
Averages and records for this station are not official NWS values.
T = Trace of Precipitation, MM = Missing Value Source: Averaged Metar Reports

Daily Weather History Graph

Daily Weather History Graph

Search for Another Location

Airport:

Trip Planner

Search our weather history database for the weather conditions in past years. The results will help you decide how hot, cold, wet, or windy it might be!

Date:

Astronomy

Jan. 17, 2013 Rise Set
Actual Time 8:48 AM EET 4:20 PM EET
Civil Twilight 8:02 AM EET 5:06 PM EET
Nautical Twilight 7:14 AM EET 5:55 PM EET
Astronomical Twilight 6:28 AM EET 6:40 PM EET
Moon 10:21 AM EET (1/17) No Moon Set
Length of Visible Light 9h 04m
Length of Day
7h 32m
Waxing Crescent, 34% of the Moon is Illuminated
Jan 17
Waxing Crescent
Jan 19
First Quarter
Jan 27
Full
Feb 3
Last Quarter
Feb 10
New

Hourly Weather History & Observations

Time (EET) Temp. Windchill Dew Point Humidity Pressure Visibility Wind Dir Wind Speed Gust Speed Precip Events Conditions
12:20 AM 15.8 °F 4.2 °F 14.0 °F 93% 30.01 in 6.2 mi NE 9.2 mph - N/A   Overcast
12:50 AM 14.0 °F 2.0 °F 14.0 °F 100% 30.01 in 6.2 mi East 9.2 mph - N/A   Overcast
1:20 AM 14.0 °F 2.0 °F 12.2 °F 93% 30.01 in 6.2 mi East 9.2 mph - N/A Snow Light Snow
1:50 AM 15.8 °F 6.1 °F 12.2 °F 86% 30.04 in 6.2 mi ENE 6.9 mph - N/A Snow Light Snow
2:00 AM 15 °F - 13 °F 88% 30.04 in 6 mi NE 6.7 mph - - Snow Light Snow
2:20 AM 15.8 °F 5.1 °F 14.0 °F 93% 30.01 in 6.2 mi NE 8.1 mph - N/A Snow Light Snow
2:50 AM 15.8 °F 3.4 °F 14.0 °F 93% 30.04 in 6.2 mi NE 10.4 mph - N/A Snow Light Snow
3:20 AM 15.8 °F 3.4 °F 14.0 °F 93% 30.04 in 6.2 mi NE 10.4 mph - N/A Snow Light Snow
3:50 AM 15.8 °F 4.2 °F 14.0 °F 93% 30.04 in 6.2 mi NNE 9.2 mph - N/A Snow Light Snow
4:20 AM 15.8 °F 2.7 °F 14.0 °F 93% 30.01 in 6.2 mi NNE 11.5 mph - N/A Snow Light Snow
4:50 AM 15.8 °F 4.2 °F 14.0 °F 93% 30.01 in 6.2 mi NNE 9.2 mph - N/A Snow Light Snow
5:20 AM 17.6 °F 7.3 °F 14.0 °F 86% 30.01 in 6.2 mi NNE 8.1 mph - N/A Snow Light Snow
5:50 AM 17.6 °F 5.7 °F 14.0 °F 86% 30.01 in 6.2 mi NNE 10.4 mph - N/A Snow Light Snow
6:20 AM 17.6 °F 6.4 °F 15.8 °F 93% 30.01 in 6.2 mi NNE 9.2 mph - N/A Snow Light Snow
6:50 AM 17.6 °F 4.3 °F 15.8 °F 93% 30.01 in 6.2 mi NE 12.7 mph - N/A Snow Light Snow
7:20 AM 17.6 °F 5.7 °F 15.8 °F 93% 30.01 in 6.2 mi NNE 10.4 mph - N/A Snow Light Snow
7:50 AM 17.6 °F 5.0 °F 15.8 °F 93% 30.01 in 6.2 mi North 11.5 mph - N/A   Overcast
8:00 AM 18 °F - 15 °F 85% 30.03 in 6 mi North 11.2 mph - -   Clear
8:20 AM 17.6 °F 5.0 °F 15.8 °F 93% 30.01 in 6.2 mi NNE 11.5 mph - N/A   Overcast
8:50 AM 19.4 °F 7.9 °F 15.8 °F 86% 30.04 in 6.2 mi NNE 10.4 mph - N/A   Overcast
9:20 AM 19.4 °F 7.2 °F 17.6 °F 93% 30.04 in 6.2 mi NNE 11.5 mph - N/A   Overcast
9:50 AM 19.4 °F 6.6 °F 17.6 °F 93% 30.04 in 6.2 mi NE 12.7 mph - N/A Snow Light Snow
10:20 AM 19.4 °F 5.0 °F 17.6 °F 93% 30.04 in 6.2 mi NE 16.1 mph - N/A Snow Light Snow
10:50 AM 19.4 °F 7.2 °F 17.6 °F 93% 30.04 in 6.2 mi NE 11.5 mph - N/A Snow Light Snow
11:20 AM 19.4 °F 7.2 °F 15.8 °F 86% 30.04 in 6.2 mi NE 11.5 mph - N/A   Mostly Cloudy
11:50 AM 19.4 °F 7.2 °F 15.8 °F 86% 30.04 in 6.2 mi NE 11.5 mph - N/A   Mostly Cloudy
12:20 PM 19.4 °F 7.9 °F 15.8 °F 86% 30.04 in 6.2 mi NE 10.4 mph - N/A   Mostly Cloudy
12:50 PM 19.4 °F 6.0 °F 15.8 °F 86% 30.04 in 6.2 mi NE 13.8 mph - N/A   Mostly Cloudy
1:20 PM 19.4 °F 7.2 °F 15.8 °F 86% 30.04 in 6.2 mi NE 11.5 mph - N/A   Scattered Clouds
1:50 PM 19.4 °F 6.6 °F 15.8 °F 86% 30.04 in 6.2 mi NE 12.7 mph - N/A   Mostly Cloudy
2:00 PM 19 °F - 16 °F 81% 30.05 in 6 mi NNE 11.2 mph - -   Clear
2:20 PM 19.4 °F 7.2 °F 15.8 °F 86% 30.04 in 6.2 mi NNE 11.5 mph - N/A   Overcast
2:50 PM 19.4 °F 7.2 °F 15.8 °F 86% 30.04 in 5.6 mi NE 11.5 mph - N/A Snow Light Snow
3:20 PM 19.4 °F 8.6 °F 15.8 °F 86% 30.04 in 4.3 mi NE 9.2 mph - N/A Snow Light Snow
3:50 PM 19.4 °F 6.6 °F 15.8 °F 86% 30.04 in 5.0 mi NNE 12.7 mph - N/A Snow Light Snow
4:20 PM 19.4 °F 7.2 °F 15.8 °F 86% 30.04 in 6.2 mi NNE 11.5 mph - N/A   Overcast
4:50 PM 19.4 °F 7.9 °F 15.8 °F 86% 30.06 in 6.2 mi NNE 10.4 mph - N/A Snow Light Snow
5:20 PM 17.6 °F 5.7 °F 15.8 °F 93% 30.06 in 6.2 mi NNE 10.4 mph - N/A Snow Light Snow
5:50 PM 17.6 °F 7.3 °F 15.8 °F 93% 30.06 in 6.2 mi NNE 8.1 mph - N/A Snow Light Snow
6:20 PM 17.6 °F 5.0 °F 15.8 °F 93% 30.06 in 6.2 mi North 11.5 mph - N/A Snow Light Snow
6:50 PM 17.6 °F 4.3 °F 15.8 °F 93% 30.06 in 6.2 mi NNE 12.7 mph - N/A Snow Light Snow
7:20 PM 17.6 °F 4.3 °F 15.8 °F 93% 30.06 in 6.2 mi NNE 12.7 mph - N/A Snow Light Snow
7:50 PM 17.6 °F 5.0 °F 14.0 °F 86% 30.06 in 6.2 mi NNE 11.5 mph - N/A Snow Light Snow
8:00 PM 17 °F - 14 °F 84% 30.08 in 6 mi North 11.2 mph - -   Clear
8:20 PM 15.8 °F 2.1 °F 14.0 °F 93% 30.06 in 6.2 mi NNE 12.7 mph - N/A   Overcast
8:50 PM 15.8 °F 2.1 °F 14.0 °F 93% 30.06 in 6.2 mi NNE 12.7 mph - N/A   Overcast
9:20 PM 15.8 °F 4.2 °F 14.0 °F 93% 30.06 in 6.2 mi NNE 9.2 mph - N/A   Overcast
9:50 PM 14.0 °F 1.2 °F 12.2 °F 93% 30.06 in 6.2 mi NNE 10.4 mph - N/A   Mostly Cloudy
10:20 PM 12.2 °F -0.2 °F 10.4 °F 92% 30.09 in 6.2 mi North 9.2 mph - N/A   Mostly Cloudy
10:50 PM 10.4 °F -3.3 °F 10.4 °F 100% 30.09 in 6.2 mi North 10.4 mph - N/A   Scattered Clouds
11:20 PM 8.6 °F -5.5 °F 8.6 °F 100% 30.09 in 6.2 mi North 10.4 mph - N/A   Scattered Clouds
11:50 PM 8.6 °F -6.3 °F 6.8 °F 92% 30.09 in 6.2 mi NNE 11.5 mph - N/A   Partly Cloudy